This is the latest recevied weather packets stored in our database for station/object KD0ISH. If no packets are shown the sender has not sent any weather packets the latest 10 day(s).
| Time | Temp. | Humidity | Pressure | Rain* | Wind** | Luminosity | Snow |
|---|---|---|---|---|---|---|---|
| 1777912251 | 23.89° C | 56% | 1007.1 hPa | 0 mm | - | 67 W/m² | - |
| 1777911947 | 23.89° C | 56% | 1007.2 hPa | 0 mm | - | 70 W/m² | - |
| 1777911643 | 23.89° C | 56% | 1007.2 hPa | 0 mm | - | 58 W/m² | - |
| 1777911339 | 23.33° C | 56% | 1007 hPa | 0 mm | - | 61 W/m² | - |
| 1777911038 | 23.33° C | 56% | 1007 hPa | 0 mm | - | 145 W/m² | - |
| 1777910735 | 23.33° C | 58% | 1006.7 hPa | 0 mm | - | 341 W/m² | - |
| 1777910431 | 23.33° C | 60% | 1007.1 hPa | 0 mm | - | 78 W/m² | - |
| 1777910128 | 23.33° C | 57% | 1006.9 hPa | 0 mm | - | 55 W/m² | - |
| 1777909826 | 22.78° C | 58% | 1007 hPa | 0 mm | - | 54 W/m² | - |
| 1777909522 | 22.78° C | 57% | 1006.9 hPa | 0 mm | - | 78 W/m² | - |
| 1777909219 | 22.78° C | 57% | 1007.2 hPa | 0 mm | - | 53 W/m² | - |
| 1777908917 | 22.78° C | 57% | 1007.2 hPa | 0 mm | - | 52 W/m² | - |
| 1777908616 | 22.22° C | 57% | 1007.3 hPa | 0 mm | - | 52 W/m² | - |
| 1777908312 | 22.22° C | 56% | 1007.1 hPa | 0 mm | - | 53 W/m² | - |
| 1777908008 | 22.22° C | 57% | 1007.1 hPa | 0 mm | - | 52 W/m² | - |
| 1777907704 | 22.22° C | 56% | 1007.3 hPa | 0 mm | - | 289 W/m² | - |
| 1777907398 | 21.67° C | 57% | 1007.3 hPa | 0 mm | - | 54 W/m² | - |
| 1777907095 | 21.67° C | 57% | 1007.3 hPa | 0 mm | - | 133 W/m² | - |
| 1777906793 | 21.67° C | 57% | 1007.4 hPa | 0 mm | - | 48 W/m² | - |
| 1777906491 | 21.67° C | 58% | 1007.3 hPa | 0 mm | - | 50 W/m² | - |
| 1777906186 | 21.67° C | 58% | 1007.3 hPa | 0 mm | - | 49 W/m² | - |
| 1777905883 | 21.67° C | 57% | 1007.4 hPa | 0 mm | - | 49 W/m² | - |
| 1777905580 | 21.11° C | 57% | 1007.3 hPa | 0 mm | - | 56 W/m² | - |
| 1777905277 | 21.11° C | 57% | 1007.4 hPa | 0 mm | - | 78 W/m² | - |
| 1777904974 | 21.11° C | 58% | 1007.6 hPa | 0 mm | - | 46 W/m² | - |
* Rain latest hour (hover to see other rain measurements)
** Current wind speed in m/s (hover to see current wind gust speed)